Starlink 3297

operational
NORAD ID: 50159 Int'l Des: 2021-125 Owner: SPXS Country: US Constellation: starlink
LEOCIRCULAR

About Starlink 3297

Description loading...

Live Position

Loading 3D Globe...

Upcoming Passes

Altitude History

Altitude vs Time

uPlot chart will show altitude changes over time

Two-Line Element Set

1 50159U 21125D 25351.16027723 .00000575 00000-0 54183-4 0 9997
2 50159 53.2170 269.6212 0001275 84.0221 276.0916 15.08838181223999
Epoch: Dec 17, 2025 • Age: 13 hours

Current Status

Altitude 544.4 km
Velocity 7.60 km/s
Sub-Earth Point 48.51°N, 47.54°E
Launch Date Dec 18, 2021
Age 3.9 years
Type internet

Technical Details

Classification Payload
Mass 290.00 kg
Dry Mass 270.00 kg
Total Mass 290.00 kg
Length 0.20 m
Diameter 2.80 m
Span 9.00 m
Shape Box + pan
Manufacturer SPXS
Bus Type Starlink
Phase Status In Orbit
Owner/State SPXS/US

Large Constellations

Loading constellations...